NOAA 16 DEB, 41512

Orbit data source: Space-Track

NOAA 16 DEB, 41512 is space debris in SSO originally from a launch on Thu, 21 Sep 2000 UTC launched from the Air Force Western Test Range (AFWTR). Debris objects in space refer to the collection of defunct objects orbiting the Earth. Examples of debris include non-operational satellites, rocket bodies, and fragments generated from explosions, collisions, or faulty payload assembly.

Loading next visibility...
Identifier
41512, 2000-055ML
Orbit
SSO
Country
Flag of USUS
Related business
Manufacturer
Unknown
Mission
Spacecraft
Bus & Motor
Unknown
Mass
Unknown
Launch date (UTC)
2000-09-21 (26 years ago)
Launch vehicle
Unknown
Launch site
Air Force Western Test Range (AFWTR)
Object type
Payload
Rocket body
Debris
Shape & HBR
Unknown shape, 0.1 m
Radar Cross Section
Medium (>0.1 m² and <1 m²)

Expand to show TLE details & history
Last TLE update: 14 hours ago

TLE from 14 hours ago
0 NOAA 16 DEB
1 41512U 00055ML  26219.84322643  .00002962  00000-0  67346-3 0  9993
2 41512  98.9557  74.7498 0027152 252.7060 107.1165 14.56569989541863
Epoch: 2026-08-07T20:14Z
TLE epoch observation values (Epoch: 2026-08-07T20:14:14.763Z)
Latitude
0.00001°
Longitude
174.82518°
Altitude
712.936 km
Speed
7.496 km/s
True Right ascension
04h 58m 59s
True Declination
0° 00' 00"
Sunlit
Object was in daylight at epoch
Visualization orbit readout
Latitude
Unknown
Longitude
Unknown
Altitude
Unknown
Speed
Unknown
Apparent Right ascension
Unknown
Apparent Declination
Unknown
Sunlit
N/A
Visualization observer readout
Local Sidereal Time
00:50:38
Azimuth
Unknown
Elevation
Unknown
Doppler factor
Unknown
Orbital elements
Apogee altitude
720.615 km
Perigee altitude
682.171 km
Semi-major axis
7,079.53 km
Eccentricity
0.00272
Inclination
98.9557°
RAAN
74.7498°
Arg. of periapsis
252.706°
True anomaly
107.41356°
Mean anomaly
107.1165°
Eccentric anomaly
107.26506°
Mean motion
3.64365 °/min
Orbital period
98.8 mins
BSTAR
0.00067346
Loading maneuver chart data...
Computing Atmospheric mass density...

Documentation

Showing up to 5 results
|